Broken Bow, NE

7:10 PM CDT on October 20, 2017 (GMT -0500)
Broken Bow Municipal

Weather History for KBBW - November, 2012

Change the Weather History Date:

Saturday, November 3, 2012

  Actual Average Record
Temperature  
Mean Temperature 39 °F 42 °F  
Max Temperature 57 °F 55 °F 84 °F (2005)
Min Temperature 21 °F 29 °F -4 °F (1991)
Degree Days  
Heating Degree Days 26 23  
Month to date heating degree days 76 67  
Cooling Degree Days 0 0  
Month to date cooling degree days 0 0  
Year to date cooling degree days 1077 768  
Moisture  
Dew Point 32 °F    
Average Humidity 74    
Maximum Humidity 100    
Minimum Humidity 47    
Precipitation  
Precipitation 0.00 in 0.03 in 1.00 in (2003)
Sea Level Pressure  
Sea Level Pressure 30.20 in    
Wind  
Wind Speed 4 mph (North)    
Max Wind Speed 14 mph    
Max Gust Speed 17 mph    
Visibility 9 miles    
Events      
T = Trace of Precipitation, MM = Missing Value Source: NWS Daily Summary

Daily Weather History Graph

Daily Weather History Graph

Search for Another Location

Airport or City:

Trip Planner

Search our weather history database for the weather conditions in past years. The results will help you decide how hot, cold, wet, or windy it might be!

Date:

Astronomy

Nov. 03, 2012 Rise Set
Actual Time 8:13 AM CDT 6:30 PM CDT
Civil Twilight 7:44 AM CDT 6:59 PM CDT
Nautical Twilight 7:11 AM CDT 7:32 PM CDT
Astronomical Twilight 6:39 AM CDT 8:04 PM CDT
Moon 10:12 PM CDT (11/3) 12:19 PM CDT (11/3)
Length of Visible Light 11h 15m
Length of Day
10h 17m
Waning Gibbous, 80% of the Moon is Illuminated
Nov 3
Waning Gibbous
Nov 6
Last Quarter
Nov 13
New
Nov 20
First Quarter
Nov 28
Full

Hourly Weather History & Observations

Time (CDT) Temp. Windchill Dew Point Humidity Pressure Visibility Wind Dir Wind Speed Gust Speed Precip Events Conditions
12:53 AM 21.0 °F 16.2 °F 19.0 °F 92% 30.19 in 7.0 mi NNW 3.5 mph - N/A   Clear
1:53 AM 24.1 °F 19.7 °F 21.9 °F 91% 30.20 in 6.0 mi West 3.5 mph - N/A   Clear
2:53 AM 28.9 °F - 27.0 °F 92% 30.19 in 6.0 mi Calm Calm - N/A   Clear
3:53 AM 28.9 °F - 28.0 °F 96% 30.20 in 7.0 mi Calm Calm - N/A   Clear
4:53 AM 30.0 °F 26.5 °F 28.0 °F 92% 30.20 in 9.0 mi SW 3.5 mph - N/A   Clear
5:53 AM 25.0 °F - 24.1 °F 96% 30.21 in 7.0 mi Calm Calm - N/A   Clear
6:53 AM 35.1 °F - 32.0 °F 89% 30.21 in 10.0 mi Calm Calm - N/A   Clear
7:53 AM 34.0 °F 28.8 °F 32.0 °F 92% 30.22 in 10.0 mi North 5.8 mph - N/A   Clear
8:53 AM 37.0 °F 29.3 °F 34.0 °F 89% 30.24 in 10.0 mi North 11.5 mph - N/A   Clear
9:53 AM 42.1 °F - 37.0 °F 82% 30.26 in 10.0 mi Calm Calm - N/A   Clear
10:53 AM 45.0 °F 38.5 °F 37.9 °F 76% 30.26 in 10.0 mi North 13.8 mph - N/A   Clear
11:53 AM 48.0 °F - 37.0 °F 66% 30.26 in 10.0 mi NW 5.8 mph - N/A   Clear
12:53 PM 50.0 °F - 36.0 °F 59% 30.25 in 10.0 mi NNE 8.1 mph - N/A   Mostly Cloudy
1:53 PM 54.0 °F - 36.0 °F 51% 30.22 in 10.0 mi North 5.8 mph - N/A   Partly Cloudy
2:05 PM 53.6 °F - 35.6 °F 51% 30.17 in 1.8 mi North 4.6 mph - N/A   Haze
2:19 PM 53.6 °F - 35.6 °F 51% 30.17 in 10.0 mi Calm Calm - N/A   Clear
2:53 PM 55.0 °F - 35.1 °F 47% 30.20 in 10.0 mi Calm Calm - N/A   Clear
3:53 PM 55.0 °F - 35.1 °F 47% 30.18 in 10.0 mi ENE 3.5 mph - N/A   Mostly Cloudy
4:53 PM 55.9 °F - 35.1 °F 45% 30.17 in 10.0 mi SE 3.5 mph - N/A   Overcast
5:53 PM 55.0 °F - 35.1 °F 47% 30.17 in 10.0 mi ESE 5.8 mph - N/A   Overcast
6:53 PM 48.0 °F - 34.0 °F 58% 30.17 in 10.0 mi ESE 6.9 mph - N/A   Scattered Clouds
7:53 PM 44.1 °F 40.1 °F 33.1 °F 65% 30.19 in 10.0 mi SE 6.9 mph - N/A   Clear
8:53 PM 37.0 °F - 30.9 °F 79% 30.19 in 10.0 mi Calm Calm - N/A   Scattered Clouds
9:53 PM 35.1 °F - 28.0 °F 76% 30.19 in 10.0 mi Calm Calm - N/A   Mostly Cloudy
10:53 PM 35.1 °F - 28.9 °F 78% 30.19 in 10.0 mi Calm Calm - N/A   Mostly Cloudy
11:53 PM 34.0 °F - 30.0 °F 85% 30.18 in 10.0 mi Calm Calm - N/A   Scattered Clouds